Content
SEND FEEDBACK

Daily
Averages
Monthly
Summary
United States of America

NEW YORK - CENTRAL PARK, NEW YORK


Home > North America > United States > New York
Elevation: 4 meters     Latitude: 40 47N     Longitude: 073 58W

WEATHER
 
SELECT A DAY
Number of Records: 148,328;   Date Range: 11/1/95 - 9/18/14
 
SHARE

PRINT THIS DATA

[ ← Previous Day ]
WEATHER ALMANAC - 25 OCTOBER, 2013
[ Next Day → ]
[ °F ]   °C
Weather ElementAverageHighLow
Temperature8.2 °C11.7 °C (2:51 pm)4.4 °C (4:51 am)
Dewpoint-2.2 °C0 °C (11:51 pm)-5 °C (4:51 pm)
Humidity49.5 %68 % (7:51 am)32 % (4:51 pm)
Barometer1020.3 hPa1023.7 hPa (10:51 pm)1016.6 hPa (1:51 am)
Wind Speed8.2 km/h13 km/h (9:51 am)
Wind Gust33.3 km/h (12:51 pm)
Weather ElementAverage
Visibility16.1 km
Wind DirectionESE (99.6 °)

Weather ElementTotal
Precipitation---
Heating Degree Days10.3 (Base 18.3)
Averaged from 23 records on 25 October, 2013
WEATHER CONDITIONS BREAKOUT
WIND DIRECTION BREAKOUT
WEATHER BY HOUR - 25 OCTOBER, 2013
[ °F ]   °C
Local TimeTemperatureDewpointHumidityBarometerVisibilityWind DirectionWind SpeedGust SpeedPrecipitationEventsConditions
1:51 AM6.1 °C-2.8 °C53 %1016.6 hPa16.1 kmVariable7.4 km/hClear
2:51 AM5.6 °C-2.8 °C55 %1016.6 hPa16.1 kmVariable7.4 km/hClear
3:51 AM5.6 °C-2.2 °C58 %1016.9 hPa16.1 kmVariable5.6 km/hClear
4:51 AM4.4 °C-1.7 °C65 %1017.3 hPa16.1 kmCalmClear
5:51 AM5 °C-1.7 °C62 %1017.9 hPa16.1 kmCalmClear
6:51 AM5 °C-1.7 °C62 %1018.6 hPa16.1 kmWNW (290°)9.3 km/hClear
7:51 AM4.4 °C-1.1 °C68 %1019.3 hPa16.1 kmNorthClear
8:51 AM5.6 °C-1.1 °C62 %1020.3 hPa16.1 kmWest (280°)11.1 km/hClear
9:51 AM7.2 °C-1.7 °C53 %1020.7 hPa16.1 kmWNW (300°)13 km/hClear
10:51 AM8.3 °C-1.1 °C52 %1020.3 hPa16.1 kmWNW (290°)13 km/hPartly Cloudy
11:51 AM9.4 °C-1.7 °C46 %1020.7 hPa16.1 kmVariable7.4 km/hMostly Cloudy
12:51 PM10 °C-1.7 °C44 %1020.3 hPa16.1 kmWNW (300°)13 km/h33.3 km/hOvercast
1:51 PM11.1 °C-2.2 °C40 %1020 hPa16.1 kmWest (280°)13 km/h27.8 km/hOvercast
2:51 PM11.7 °C-2.8 °C37 %1020 hPa16.1 kmVariable7.4 km/hOvercast
3:51 PM11.1 °C-3.3 °C37 %1020 hPa16.1 kmVariable9.3 km/hOvercast
4:51 PM11.1 °C-5 °C32 %1020.3 hPa16.1 kmNorthMostly Cloudy
5:51 PM10.6 °C-4.4 °C35 %1020.7 hPa16.1 kmVariable9.3 km/h25.9 km/hClear
6:51 PM10.6 °C-3.3 °C38 %1021.7 hPa16.1 kmVariable5.6 km/hClear
7:51 PM10 °C-3.3 °C39 %1022.4 hPa16.1 kmVariable5.6 km/hClear
8:51 PM9.4 °C-2.8 °C43 %1022.7 hPa16.1 kmWest (280°)11.1 km/hClear
9:51 PM9.4 °C-1.7 °C46 %1023.4 hPa16.1 kmWest (270°)13 km/hClear
10:51 PM8.3 °C-0.6 °C54 %1023.7 hPa16.1 kmVariable5.6 km/hClear
11:51 PM7.8 °C0 °C58 %1023.7 hPa16.1 kmVariable5.6 km/hClear
Hourly data recorded from KNYC, located 0 kilometers away from New York - Central Park, New York







STORIES FROM OUR PARTNERS